DH4SBM Weather Reports


Display with metric or nautical units.
time (UTC)temp
F
wind
direction
speed
MPH
gust
MPH
rain 1hr
in
rain 24hr
in
rain mn
in
humidity
%
barometer
mb
20260906092312 70 112 3.0 8.0 0.00 0.00 0.00 58 1028.5
20260906091312 69 90 2.0 8.0 0.00 0.00 0.00 59 1028.4
20260906090311 68 90 2.0 8.0 0.00 0.00 0.00 62 1028.5
20260906085311 67 68 3.0 5.0 0.00 0.00 0.00 64 1028.5
20260906084311 66 68 3.0 7.0 0.00 0.00 0.00 66 1028.4
20260906083311 65 68 3.0 9.0 0.00 0.00 0.00 66 1028.5
20260906082311 65 22 2.0 5.0 0.00 0.00 0.00 68 1028.4
20260906081311 64 45 2.0 4.0 0.00 0.00 0.00 71 1028.5
20260906080311 64 135 1.0 4.0 0.00 0.00 0.00 71 1028.5
20260906075311 62 180 1.0 4.0 0.00 0.00 0.00 74 1028.5
20260906074310 61 180 1.0 4.0 0.00 0.00 0.00 77 1028.5
20260906073310 60 180 0.0 3.0 0.00 0.00 0.00 78 1028.5
20260906072310 59 0 0.0 0.0 0.00 0.00 0.00 82 1028.6
20260906071310 57 0 0.0 0.0 0.00 0.00 0.00 84 1028.6
20260906070310 57 0 0.0 0.0 0.00 0.00 0.00 86 1028.7
20260906065310 56 180 0.0 2.0 0.00 0.00 0.00 86 1028.6
20260906064310 54 180 0.0 1.0 0.00 0.00 0.00 88 1028.8
20260906063309 53 180 0.0 1.0 0.00 0.00 0.00 89 1028.7
20260906062309 53 180 1.0 3.0 0.00 0.00 0.00 90 1028.5
20260906061309 52 0 0.0 0.0 0.00 0.00 0.00 90 1028.6
20260906060309 51 180 2.0 5.0 0.00 0.00 0.00 90 1028.6
20260906055309 51 90 1.0 4.0 0.00 0.01 0.00 90 1028.7
20260906055025 51 90 1.0 4.0 0.00 0.01 0.00 90 1028.7
20260906054025 50 45 2.0 4.0 0.00 0.01 0.00 90 1028.5
20260906053025 50 45 2.0 4.0 0.00 0.01 0.00 89 1028.3
20260906052024 50 45 0.0 3.0 0.00 0.01 0.00 89 1028.2
20260906051024 50 0 0.0 0.0 0.00 0.01 0.00 89 1028.1
20260906050024 50 0 0.0 0.0 0.00 0.01 0.00 89 1028.0
20260906045024 50 0 0.0 0.0 0.00 0.01 0.00 89 1028.0
20260906044024 50 0 0.0 0.0 0.00 0.01 0.00 89 1027.9
20260906043025 51 45 0.0 1.0 0.00 0.01 0.00 88 1027.9
20260906042025 51 45 0.0 2.0 0.00 0.01 0.00 88 1028.1
20260906041024 51 45 0.0 1.0 0.00 0.01 0.00 88 1028.1
20260906040024 51 45 0.0 1.0 0.00 0.01 0.00 88 1028.0
20260906035024 51 45 0.0 2.0 0.00 0.01 0.00 89 1027.9
20260906034024 51 45 1.0 3.0 0.00 0.01 0.00 88 1027.9
20260906033024 51 45 1.0 3.0 0.00 0.01 0.00 88 1027.8
20260906032026 51 0 0.0 0.0 0.00 0.01 0.00 88 1028.1
20260906031026 51 45 1.0 3.0 0.00 0.01 0.00 87 1028.1
20260906030025 51 45 2.0 3.0 0.00 0.01 0.00 87 1027.9
20260906025025 52 45 2.0 3.0 0.00 0.06 0.00 86 1027.7
20260906024025 52 45 2.0 3.0 0.00 0.06 0.00 85 1027.8
20260906023025 53 45 2.0 3.0 0.00 0.06 0.00 85 1027.8
20260906022025 53 45 2.0 4.0 0.00 0.06 0.00 84 1027.8
20260906021025 53 45 1.0 3.0 0.00 0.06 0.00 83 1027.8
20260906020025 54 45 1.0 3.0 0.00 0.06 0.00 82 1027.8
20260906015025 54 45 1.0 3.0 0.00 0.21 0.00 82 1027.8
20260906014025 54 45 0.0 2.0 0.00 0.21 0.00 82 1027.8
20260906013024 54 45 1.0 3.0 0.00 0.21 0.00 82 1027.7
20260906012024 54 45 2.0 4.0 0.00 0.21 0.00 82 1027.6
20260906011024 54 45 2.0 3.0 0.00 0.21 0.00 83 1027.8
20260906010024 54 45 1.0 3.0 0.00 0.21 0.00 83 1027.9
20260906005024 54 45 3.0 5.0 0.00 0.24 0.00 83 1027.8
20260906004024 54 112 1.0 4.0 0.00 0.24 0.00 83 1027.7
20260906003024 54 0 0.0 0.0 0.00 0.24 0.00 83 1027.8
20260906002026 54 0 0.0 0.0 0.00 0.24 0.00 83 1027.6
20260906001026 55 112 0.0 1.0 0.00 0.24 0.00 82 1027.6
20260906000025 55 112 1.0 2.0 0.00 0.24 0.00 82 1027.4
20260905235025 56 112 2.0 3.0 0.00 0.24 0.00 80 1027.5
20260905234025 56 112 2.0 3.0 0.00 0.24 0.00 79 1027.4
20260905233025 57 0 0.0 0.0 0.00 0.24 0.00 77 1027.2
20260905232025 57 0 0.0 0.0 0.00 0.24 0.00 76 1027.2
20260905231025 57 112 1.0 3.0 0.00 0.24 0.00 76 1027.0
20260905230025 57 135 2.0 4.0 0.00 0.24 0.00 76 1027.1
20260905225025 58 158 1.0 3.0 0.00 0.24 0.00 75 1027.0
20260905224025 59 158 0.0 2.0 0.00 0.24 0.00 74 1026.8
20260905223024 59 158 0.0 1.0 0.00 0.24 0.00 72 1026.9
20260905222024 60 158 0.0 2.0 0.00 0.24 0.00 70 1026.8
20260905221024 61 158 1.0 2.0 0.00 0.24 0.00 68 1026.8
20260905220024 62 158 0.0 2.0 0.00 0.24 0.00 67 1026.7
20260905215024 62 158 0.0 1.0 0.00 0.24 0.24 63 1026.5
20260905214024 62 158 1.0 2.0 0.00 0.24 0.24 63 1026.4
20260905213024 62 158 2.0 3.0 0.00 0.24 0.24 64 1026.2
20260905212026 62 158 2.0 5.0 0.00 0.24 0.24 64 1026.1
20260905211025 62 158 3.0 5.0 0.00 0.24 0.24 66 1026.0
20260905210025 62 158 1.0 4.0 0.00 0.24 0.24 67 1026.0
20260905205025 62 158 3.0 5.0 0.00 0.24 0.24 66 1025.8
20260905204024 63 158 3.0 6.0 0.00 0.24 0.24 65 1025.9
20260905203024 64 45 0.0 2.0 0.00 0.24 0.24 60 1025.7
20260905202024 64 45 2.0 4.0 0.00 0.24 0.24 61 1025.5
20260905201026 65 45 2.0 4.0 0.00 0.24 0.24 60 1025.5
20260905200026 66 158 2.0 6.0 0.00 0.24 0.24 57 1025.3
20260905195026 66 180 3.0 5.0 0.00 0.24 0.24 56 1025.3
20260905194025 67 202 2.0 4.0 0.00 0.24 0.24 55 1025.2
20260905193025 67 225 3.0 4.0 0.00 0.24 0.24 53 1025.1
20260905192025 68 225 3.0 4.0 0.00 0.24 0.24 52 1025.1
20260905191025 68 270 3.0 4.0 0.00 0.24 0.24 53 1025.0
20260905190025 69 270 2.0 3.0 0.00 0.24 0.24 51 1024.9
20260905185025 69 270 3.0 4.0 0.00 0.24 0.24 50 1024.8
20260905184025 70 292 4.0 6.0 0.00 0.24 0.24 49 1024.5
20260905183025 70 292 4.0 6.0 0.00 0.24 0.24 49 1024.5
20260905182025 71 292 3.0 6.0 0.00 0.24 0.24 48 1024.3
20260905181024 71 292 3.0 6.0 0.00 0.24 0.24 48 1024.3
20260905180024 72 292 4.0 8.0 0.00 0.24 0.24 46 1024.2
20260905175024 73 270 5.0 9.0 0.00 0.24 0.24 46 1024.0
20260905174024 73 292 5.0 10.0 0.00 0.24 0.24 45 1024.0
20260905173024 74 292 6.0 10.0 0.00 0.24 0.24 44 1023.9
20260905172024 74 292 6.0 11.0 0.00 0.24 0.24 44 1023.9
20260905171024 74 292 8.0 14.0 0.00 0.24 0.24 44 1023.8
20260905170024 75 270 9.0 15.0 0.00 0.24 0.24 43 1023.8
20260905165024 75 292 8.0 12.0 0.00 0.24 0.24 44 1023.7
20260905164024 75 292 8.0 14.0 0.00 0.24 0.24 44 1023.7
20260905163024 75 292 8.0 16.0 0.00 0.24 0.24 44 1023.5
20260905162024 75 270 11.0 17.0 0.00 0.24 0.24 44 1023.5
20260905161024 75 292 10.0 18.0 0.00 0.24 0.24 43 1023.3
20260905160024 76 292 9.0 17.0 0.00 0.24 0.24 43 1023.3
20260905155024 76 270 8.0 15.0 0.00 0.24 0.24 44 1023.3
20260905154024 75 270 9.0 17.0 0.00 0.24 0.24 46 1023.3
20260905153024 75 270 10.0 17.0 0.00 0.24 0.24 48 1023.3
20260905152024 75 270 10.0 17.0 0.00 0.24 0.24 47 1023.2
20260905150612 75 292 11.0 21.0 0.00 0.24 0.24 47 1023.1
20260905145612 76 270 7.0 16.0 0.00 0.24 0.24 48 1023.2
20260905144612 75 270 8.0 15.0 0.00 0.24 0.24 49 1023.1
20260905143614 75 292 11.0 18.0 0.00 0.24 0.24 50 1023.1
20260905142614 75 292 11.0 18.0 0.00 0.24 0.24 49 1023.2
20260905141613 75 292 11.0 19.0 0.00 0.24 0.24 51 1023.2
20260905140613 75 270 9.0 18.0 0.00 0.24 0.24 51 1023.3
20260905135613 75 270 9.0 16.0 0.00 0.24 0.24 52 1023.2
20260905134613 74 292 9.0 16.0 0.00 0.24 0.24 53 1023.2
20260905133613 74 270 10.0 16.0 0.00 0.24 0.24 53 1023.2
20260905132613 74 315 9.0 19.0 0.00 0.24 0.24 53 1023.2
20260905131612 74 270 8.0 16.0 0.00 0.24 0.24 55 1023.3
20260905130612 73 292 10.0 17.0 0.00 0.24 0.24 55 1023.1
20260905125612 73 292 11.0 20.0 0.00 0.24 0.24 57 1023.3
20260905124612 73 292 8.0 16.0 0.00 0.24 0.24 59 1023.3
20260905123614 72 292 9.0 17.0 0.00 0.24 0.24 60 1023.3
20260905122614 72 292 10.0 17.0 0.00 0.24 0.24 61 1023.2
20260905121613 72 270 9.0 17.0 0.00 0.24 0.24 60 1023.3
20260905120613 72 292 10.0 19.0 0.00 0.24 0.24 61 1023.5
20260905115612 71 270 10.0 19.0 0.00 0.24 0.24 61 1023.5
20260905114612 71 292 9.0 17.0 0.00 0.24 0.24 62 1023.4
20260905113612 71 270 10.0 18.0 0.00 0.24 0.24 63 1023.5
20260905112614 71 292 9.0 16.0 0.00 0.24 0.24 65 1023.4
20260905111614 71 270 9.0 14.0 0.00 0.24 0.24 63 1023.4
20260905110613 70 270 9.0 17.0 0.00 0.24 0.24 64 1023.5
20260905105613 70 292 9.0 14.0 0.00 0.24 0.24 62 1023.4
20260905104613 70 270 8.0 15.0 0.00 0.24 0.24 65 1023.3
20260905103613 69 292 8.0 14.0 0.00 0.24 0.24 68 1023.3
20260905102613 69 292 7.0 13.0 0.00 0.24 0.24 71 1023.2
20260905101613 69 270 9.0 15.0 0.00 0.24 0.24 70 1023.2
20260905100613 69 292 8.0 17.0 0.00 0.24 0.24 70 1023.2
20260905095612 68 292 8.0 13.0 0.00 0.24 0.24 75 1023.2
20260905094612 67 292 9.0 15.0 0.00 0.24 0.24 76 1023.3
20260905093612 67 292 8.0 16.0 0.00 0.24 0.24 77 1023.1